Tinker AFB, OK

9:00 PM CDT on April 30, 2017 (GMT -0500)
Tinker Air Force Base

Weather History for KTIK - January, 2013

Change the Weather History Date:

Wednesday, January 2, 2013

  Actual Average Record
Temperature  
Mean Temperature 34 °F -  
Max Temperature 43 °F 47 °F 77 °F (1997)
Min Temperature 26 °F 27 °F 14 °F (2014)
Degree Days  
Heating Degree Days 30    
Moisture  
Dew Point 24 °F    
Average Humidity 76    
Maximum Humidity 88    
Minimum Humidity 46    
Precipitation  
Precipitation 0.00 in - - ()
Sea Level Pressure  
Sea Level Pressure 30.30 in    
Wind  
Wind Speed 8 mph (WNW)    
Max Wind Speed 14 mph    
Max Gust Speed -    
Visibility 10 miles    
Events      
Averages and records for this station are not official NWS values.
T = Trace of Precipitation, MM = Missing Value Source: NWS Daily Summary

Daily Weather History Graph

Daily Weather History Graph

Search for Another Location

Airport or City:

Trip Planner

Search our weather history database for the weather conditions in past years. The results will help you decide how hot, cold, wet, or windy it might be!

Date:

Astronomy

Jan. 02, 2013 Rise Set
Actual Time 7:38 AM CST 5:28 PM CST
Civil Twilight 7:10 AM CST 5:57 PM CST
Nautical Twilight 6:38 AM CST 6:28 PM CST
Astronomical Twilight 6:08 AM CST 6:59 PM CST
Moon 10:49 PM CST (1/2) 10:32 AM CST (1/2)
Length of Visible Light 10h 46m
Length of Day
9h 50m
Waning Gibbous, 75% of the Moon is Illuminated
Jan 2
Waning Gibbous
Jan 4
Last Quarter
Jan 11
New
Jan 18
First Quarter
Jan 26
Full

Hourly Weather History & Observations

Time (CST) Temp. Windchill Dew Point Humidity Pressure Visibility Wind Dir Wind Speed Gust Speed Precip Events Conditions
12:09 AM 26.6 °F 17.5 °F 23.0 °F 86% 30.33 in 10.0 mi NNW 9.2 mph - N/A   Overcast
12:33 AM 26.6 °F 17.5 °F 23.0 °F 86% 30.33 in 10.0 mi NNW 9.2 mph - N/A   Overcast
12:40 AM 26.6 °F 16.8 °F 23.0 °F 86% 30.33 in 10.0 mi NNW 10.4 mph - N/A   Overcast
12:55 AM 26.6 °F 18.2 °F 23.2 °F 87% 30.33 in 10.0 mi North 8.1 mph - N/A   Overcast
1:12 AM 26.6 °F 19.1 °F 23.0 °F 86% 30.32 in 9.0 mi North 6.9 mph - N/A   Overcast
1:26 AM 26.6 °F 18.2 °F 23.0 °F 86% 30.32 in 9.0 mi NNW 8.1 mph - N/A   Overcast
1:55 AM 26.8 °F 20.2 °F 23.7 °F 88% 30.32 in 10.0 mi North 5.8 mph - N/A   Overcast
2:55 AM 27.1 °F 20.7 °F 23.5 °F 86% 30.32 in 10.0 mi NNW 5.8 mph - N/A   Overcast
3:55 AM 27.3 °F 23.4 °F 22.8 °F 83% 30.31 in 10.0 mi WNW 3.5 mph - N/A   Overcast
4:55 AM 27.7 °F 19.6 °F 22.8 °F 82% 30.30 in 10.0 mi WNW 8.1 mph - N/A   Overcast
5:55 AM 27.7 °F 23.8 °F 23.2 °F 83% 30.30 in 10.0 mi WNW 3.5 mph - N/A   Overcast
6:55 AM 27.7 °F 23.8 °F 23.2 °F 83% 30.29 in 10.0 mi WNW 3.5 mph - N/A   Overcast
7:55 AM 28.0 °F 22.8 °F 23.5 °F 83% 30.31 in 10.0 mi WSW 4.6 mph - N/A   Overcast
8:55 AM 27.9 °F 19.8 °F 23.4 °F 83% 30.31 in 10.0 mi SW 8.1 mph - N/A   Scattered Clouds
9:24 AM 28.4 °F 19.7 °F 24.8 °F 86% 30.32 in 10.0 mi WSW 9.2 mph - N/A   Mostly Cloudy
9:36 AM 28.4 °F 20.4 °F 23.0 °F 80% 30.32 in 10.0 mi WSW 8.1 mph - N/A   Scattered Clouds
9:55 AM 29.1 °F 21.3 °F 24.1 °F 81% 30.32 in 10.0 mi SW 8.1 mph - N/A   Scattered Clouds
9:59 AM 30.2 °F 23.4 °F 23.0 °F 75% 30.33 in 10.0 mi West 6.9 mph - N/A   Scattered Clouds
10:55 AM 32.5 °F 24.8 °F 23.9 °F 70% 30.32 in 10.0 mi WSW 9.2 mph - N/A   Clear
11:55 AM 35.6 °F 28.0 °F 24.3 °F 63% 30.30 in 10.0 mi SW 10.4 mph - N/A   Clear
12:55 PM 38.3 °F 30.5 °F 25.2 °F 59% 30.25 in 10.0 mi West 12.7 mph - N/A   Clear
1:55 PM 40.3 °F 33.0 °F 25.5 °F 56% 30.22 in 10.0 mi SW 12.7 mph - N/A   Clear
2:55 PM 42.4 °F 35.7 °F 24.6 °F 49% 30.21 in 10.0 mi WSW 12.7 mph - N/A   Clear
3:55 PM 43.2 °F 37.9 °F 23.5 °F 46% 30.22 in 10.0 mi West 9.2 mph - N/A   Clear
4:55 PM 41.9 °F 36.9 °F 25.2 °F 52% 30.23 in 10.0 mi WSW 8.1 mph - N/A   Clear
5:55 PM 38.8 °F 34.6 °F 25.5 °F 59% 30.25 in 10.0 mi West 5.8 mph - N/A   Clear
6:55 PM 37.6 °F 31.0 °F 26.8 °F 65% 30.27 in 10.0 mi NNW 9.2 mph - N/A   Clear
7:55 PM 35.4 °F 26.4 °F 27.1 °F 72% 30.30 in 10.0 mi NNW 13.8 mph - N/A   Clear
8:55 PM 34.0 °F 25.5 °F 27.0 °F 75% 30.31 in 10.0 mi NNW 11.5 mph - N/A   Clear
9:55 PM 33.6 °F 27.5 °F 26.8 °F 76% 30.33 in 10.0 mi WNW 6.9 mph - N/A   Clear
10:55 PM 31.3 °F 23.9 °F 26.4 °F 82% 30.34 in 10.0 mi NW 8.1 mph - N/A   Clear
11:55 PM 29.5 °F 21.8 °F 26.1 °F 87% 30.34 in 10.0 mi NW 8.1 mph - N/A   Clear